Dati Storici

Data ora Umidita' aria (%) Temperatura aria (°C) Rad globale (W/m²) Gonioanemometro (°) Tacoanemometro (m/s) Pioggia (mm)
15-06-2020 18:10 94.6 % 19.669 150.826 -0.004 0 0
15-06-2020 18:00 91.3 % 19.74 152.476 -0.009 0 0
15-06-2020 17:50 86.8 % 19.832 219.762 0.9 0 0
15-06-2020 17:40 91 % 20.284 182.866 1.87 0 0
15-06-2020 17:30 91.3 % 20.569 -28.594 1.591 0 0
15-06-2020 17:20 92.1 % 20.659 -41.925 0.73 0 0
15-06-2020 17:10 92.2 % 20.741 -57.579 0.123 0 0
15-06-2020 17:00 91.1 % 20.979 26.706 0.645 0 0
15-06-2020 16:50 90.9 % 20.816 -42.262 1.31 0 0
15-06-2020 16:40 93.2 % 20.92 -45.364 -0.011 0 0
15-06-2020 16:30 92.8 % 20.789 -45.935 0.165 0 0
15-06-2020 16:20 92.6 % 20.844 16.637 0.234 0 0
15-06-2020 16:10 92.8 % 20.896 -55.052 1.202 0 0
15-06-2020 16:00 93.8 % 21.062 -66.682 -0.013 0 0
15-06-2020 15:50 94.4 % 20.943 -69.258 0.631 0 0
15-06-2020 15:40 94.4 % 20.843 -72.223 0.231 0 0
15-06-2020 15:30 94.2 % 21.105 -68.065 -0.013 0 0
15-06-2020 15:20 92.5 % 21.077 -57.447 -0.011 0 0
15-06-2020 15:10 89.7 % 21.152 -58.197 -0.011 0 0
15-06-2020 15:00 89.3 % 21.477 -69.341 -0.01 0 0

I dati sono presentati in modo automatico a scopo informativo. In seguito a verifica i dati possono subire modifiche o essere invalidati e non riportati negli archivi definitivi.